EHI
4 5 4 5 6 6 4 3 3 3 3 2 1 1 0 0 0 0 1 3 8 13 15 13 11 7 5 4 4 2 2 2 2 3 2 1 0 0 0 0 0 0 0
4 4 4 5 6 5 4 3 3 3 3 3 2 2 1 0 0 0 0 2 7 12 14 13 10 8 7 6 5 4 3 2 3 3 1 0 0 0 0 0 0 0 0
4 3 3 5 6 4 3 3 3 3 3 3 3 2 1 0 0 0 0 1 4 9 12 11 9 8 9 8 6 5 4 4 3 3 2 1 1 0 0 0 0 0 0
3 3 3 4 5 4 3 3 3 3 3 3 2 1 0 0 0 0 0 0 1 4 6 8 8 8 8 8 6 4 4 4 4 3 3 2 2 1 1 0 0 0 0
4 3 3 4 4 4 3 3 3 3 3 3 1 0 0 0 0 0 0 0 0 1 1 3 5 5 5 6 5 4 4 3 3 3 3 3 3 3 2 1 1 1 0
5 4 3 3 4 3 3 3 3 3 2 2 1 0 0 0 0 0 0 0 0 0 0 1 2 2 3 4 3 3 3 3 3 3 4 4 3 3 3 3 2 2 1
6 5 4 3 3 3 3 3 2 2 1 1 0 0 0 0 0 0 0 0 0 0 0 0 0 0 1 1 1 2 2 3 3 4 5 5 4 4 4 4 3 3 3
6 6 4 3 2 2 2 1 1 1 1 0 0 0 0 0 0 0 0 0 0 0 0 0 0 1 1 0 0 1 1 1 3 3 4 5 4 3 4 4 4 3 3
6 6 6 4 2 1 1 0 1 1 1 0 0 0 0 0 0 0 0 0 0 0 0 0 1 2 1 0 0 0 0 1 2 3 3 3 2 2 2 3 3 2 2
7 8 7 5 3 1 0 0 0 0 0 0 0 0 0 0 0 0 0 0 0 0 0 0 1 2 1 0 0 0 0 0 1 1 2 2 2 2 1 1 1 1 1
8 9 8 6 4 2 1 1 1 1 1 0 0 0 0 0 0 0 0 0 0 0 0 1 2 2 1 0 0 0 0 0 0 0 0 1 2 1 0 0 0 0 0
7 7 7 6 5 4 3 2 2 2 2 1 0 0 0 0 0 0 0 0 0 0 0 1 1 1 0 0 0 0 0 0 0 0 0 0 1 0 0 0 0 0 0
5 5 5 5 6 5 4 3 3 3 3 1 1 1 2 1 1 1 0 0 0 0 0 0 0 0 0 0 0 0 0 0 0 0 0 0 0 0 0 0 0 0 0
3 3 3 4 4 5 5 4 3 3 3 3 2 2 2 2 2 2 1 0 0 0 0 0 0 0 0 0 0 0 0 0 0 0 0 0 0 0 0 0 0 0 0
1 2 3 3 3 4 5 4 3 3 3 3 3 2 2 2 2 2 1 0 0 0 0 0 0 0 0 0 0 0 0 0 0 0 0 0 0 0 0 0 0 0 0
0 1 1 2 3 4 5 5 4 3 2 2 2 1 0 1 1 1 1 0 0 0 0 0 0 0 0 0 0 0 0 0 0 0 0 0 0 0 0 0 0 0 0
0 0 0 1 1 2 4 5 4 2 1 1 1 0 0 0 0 0 0 0 0 0 0 0 0 0 0 0 0 0 0 0 0 0 0 0 0 0 0 0 0 0 0
0 0 0 0 0 1 2 3 3 1 0 0 0 0 0 0 0 0 0 0 0 0 0 0 0 0 0 0 0 0 0 0 0 0 0 0 0 0 0 0 0 0 0
0 0 0 0 0 0 1 1 1 0 0 0 0 0 0 0 0 0 0 0 0 0 0 0 0 0 0 0 0 0 0 0 0 0 0 0 0 0 0 0 0 0 0
0 0 0 0 0 0 0 0 0 0 0 0 0 0 0 0 0 0 0 0 0 0 0 0 0 0 0 0 0 0 0 0 0 0 0 0 0 0 0 0 0 0 0
0 0 0 0 0 0 0 0 0 0 0 0 0 0 0 0 0 0 0 0 0 0 0 0 0 0 0 0 0 0 0 0 0 0 0 0 0 0 0 0 0 0 0
0 0 0 0 0 0 0 0 0 0 0 0 0 0 0 0 0 0 0 0 0 0 0 0 0 0 0 0 0 0 0 0 0 0 0 0 0 0 0 0 0 0 0
0 0 0 0 0 0 0 0 0 0 0 0 0 0 0 0 0 0 0 0 0 0 0 0 0 0 0 0 0 0 0 0 0 0 0 0 0 0 0 0 0 0 0
1 0 0 0 0 0 0 0 0 0 0 0 0 0 0 1 0 0 0 0 0 0 0 0 0 0 0 0 0 0 0 0 0 0 0 0 0 0 0 0 0 0 0
3 2 1 0 0 0 0 0 0 0 0 0 0 0 0 0 0 0 0 0 0 0 0 0 0 0 0 0 0 0 0 0 0 0 0 0 0 0 0 0 0 0 0
5 3 2 1 0 0 0 0 0 0 0 0 0 0 0 0 0 0 0 0 0 0 0 0 0 0 0 0 0 0 0 0 0 0 0 0 0 0 0 0 0 0 0
Wind_Speed
3 3 2 2 2 2 2 2 1 1 1 1 2 3 3 4 4 3 3 8 9 10 11 10 9 8 7 8 8 8 8 9 9 9 9 9 9 9 8 7 6 6 6
3 3 3 2 2 2 2 2 2 1 1 1 1 2 3 3 4 4 3 5 8 9 9 9 9 8 8 8 8 8 8 9 9 9 9 9 9 9 8 8 7 7 6
4 3 3 3 2 2 2 2 2 1 1 1 1 1 2 3 4 4 3 3 3 7 9 8 8 8 8 8 8 8 9 9 9 9 9 10 10 9 9 9 8 8 7
4 3 3 2 2 2 2 2 2 1 1 1 1 1 1 2 4 4 4 3 3 4 6 9 9 8 8 8 8 8 9 9 9 9 10 10 10 9 9 9 9 8 8
4 3 3 2 2 2 2 2 2 2 1 1 1 1 1 2 3 4 4 5 4 4 4 7 10 9 9 9 9 9 10 10 10 10 10 10 10 10 10 9 9 8 9
4 3 3 2 3 2 2 1 2 1 1 1 1 0 1 1 2 2 4 4 4 5 5 5 4 6 10 10 10 10 11 11 11 10 10 10 10 10 10 10 10 9 9
3 4 3 3 3 3 3 2 2 2 1 1 2 2 2 2 1 2 2 2 4 4 4 5 4 3 4 9 9 10 11 12 11 11 10 10 10 9 9 9 9 9 9
3 4 4 3 3 3 2 2 2 2 1 1 2 1 2 3 3 2 1 2 2 2 3 5 4 5 4 3 6 9 10 11 12 11 10 10 10 10 10 9 9 8 8
4 3 4 3 3 3 3 3 3 3 2 0 1 3 2 2 2 3 2 1 1 1 2 2 4 4 5 3 4 7 8 8 11 11 10 9 9 9 10 9 9 9 9
3 3 3 4 3 3 3 3 2 2 3 1 1 1 2 3 2 1 2 2 1 2 2 2 3 3 4 3 4 7 8 9 9 9 10 10 10 9 9 9 10 9 9
2 3 3 3 3 3 3 3 2 2 2 3 2 1 1 1 2 2 2 2 2 2 2 2 2 3 3 3 4 6 8 8 9 9 10 10 10 10 10 10 10 10 9
2 2 3 3 3 3 3 3 3 3 2 2 2 2 2 2 2 2 3 2 2 2 2 2 2 3 3 4 6 8 9 9 10 10 10 10 11 11 11 11 10 10 10
2 3 3 3 3 3 3 3 3 3 3 3 3 2 2 2 3 3 2 2 2 2 2 2 2 3 3 3 4 7 8 9 10 10 10 10 11 11 11 11 11 11 10
3 3 3 3 3 3 3 2 2 3 3 3 4 3 2 2 2 3 3 3 1 1 2 3 2 2 2 2 4 6 5 8 10 10 10 10 11 11 11 10 10 10 9
3 3 3 3 3 3 3 3 2 3 3 3 3 3 2 2 2 2 2 3 4 2 3 3 2 2 2 2 4 3 3 7 9 10 10 11 11 11 10 10 9 9 9
3 3 3 3 3 3 3 3 2 3 3 3 3 3 3 2 2 2 2 2 3 4 3 3 3 2 2 3 4 4 4 7 8 9 9 10 10 10 9 9 9 9 9
3 3 3 3 3 3 3 3 3 3 3 3 3 4 4 3 2 2 2 2 2 3 3 3 2 2 2 2 2 2 3 3 4 8 9 9 9 10 9 9 9 8 9
3 3 3 3 3 3 3 3 3 3 3 4 4 4 4 3 3 2 2 2 2 3 3 3 2 1 2 3 2 3 3 3 3 6 8 9 9 10 9 9 9 9 9
3 3 3 4 3 3 3 3 3 3 3 4 4 4 4 3 3 3 3 3 2 2 2 2 3 2 2 1 1 2 2 2 3 4 6 8 9 9 9 9 9 10 10
3 3 3 4 3 3 3 3 3 3 3 3 3 4 4 4 5 4 3 3 3 2 2 2 2 2 2 2 1 1 1 2 2 2 3 4 5 7 8 9 10 10 10
3 3 3 2 2 2 3 2 2 3 2 2 3 3 4 4 5 5 3 3 3 2 2 2 2 1 2 1 2 2 2 2 2 2 1 2 2 3 4 6 8 10 11
1 1 2 2 2 2 3 4 3 2 2 2 3 3 3 3 4 4 4 4 5 5 4 3 2 3 4 3 2 2 2 1 2 2 1 2 2 3 4 4 7 10 11
1 1 1 2 2 3 3 4 3 2 2 2 2 2 2 1 1 1 2 2 2 4 6 5 5 5 4 4 3 2 2 2 4 3 1 2 2 3 4 5 8 9 10
2 2 2 2 2 2 2 3 2 2 1 2 2 2 2 1 1 1 1 1 1 2 4 4 4 5 4 3 4 4 3 2 2 2 2 2 2 3 3 3 6 9 9
2 2 1 2 2 2 2 2 2 1 1 1 1 1 2 2 2 2 2 1 1 2 2 2 3 3 4 4 3 2 1 1 2 2 2 2 2 2 2 3 4 6 8
2 2 1 1 2 2 3 3 3 2 1 1 1 1 2 2 2 3 3 3 2 3 1 1 1 2 2 3 3 3 3 2 1 2 2 2 2 1 2 2 2 3 3
Wind_Direction
170 171 181 185 188 173 177 171 170 157 147 136 138 142 144 146 146 147 160 173 175 177 176 176 176 179 183 187 183 183 185 185 184 184 182 176 170 171 171 170 169 176 182
170 173 177 184 187 171 172 168 161 155 152 140 133 136 150 155 151 153 163 176 181 180 179 181 182 183 186 192 192 190 190 192 189 188 185 181 180 180 179 180 182 188 193
166 170 169 181 191 173 158 144 138 141 134 126 144 155 158 161 165 170 175 180 186 190 188 188 188 189 191 195 201 200 197 195 194 192 191 189 188 187 188 191 194 197 201
165 162 165 182 183 156 145 143 135 127 124 132 178 194 174 170 182 187 187 191 192 195 197 198 195 196 199 204 209 211 208 205 201 199 198 196 193 192 192 195 199 203 206
168 160 166 173 159 143 148 156 132 138 146 179 203 195 189 190 197 195 196 201 200 197 196 201 201 203 206 208 211 215 215 212 207 205 204 203 200 197 199 201 204 206 208
172 159 156 160 151 143 149 142 142 142 157 177 197 200 252 233 200 201 207 204 203 205 200 201 199 209 213 214 216 219 220 217 212 209 209 207 204 202 204 206 209 210 212
165 156 154 157 153 155 171 168 147 141 145 106 79 15 345 335 265 238 223 205 206 207 198 200 197 199 214 218 220 223 224 217 212 210 212 208 203 200 203 209 212 213 214
164 166 154 160 159 152 153 155 143 142 155 123 123 98 1 342 328 289 259 220 216 205 197 202 197 199 206 205 220 225 223 214 211 211 211 206 201 201 204 209 212 214 216
168 163 166 158 158 157 170 177 162 156 170 185 140 145 153 222 294 313 289 249 222 212 221 209 204 207 207 206 217 226 216 211 210 213 208 203 202 206 211 213 217 220 222
169 170 167 164 166 166 173 189 174 167 157 182 217 186 175 165 170 285 316 306 271 235 232 226 213 208 206 203 213 216 212 207 207 210 204 204 201 206 214 217 219 224 227
179 176 174 172 172 178 182 187 175 173 169 178 184 180 168 145 154 165 263 299 311 274 246 231 218 214 210 203 205 213 208 203 206 205 203 206 206 209 215 219 220 223 227
193 192 181 179 182 186 192 195 190 187 187 184 186 178 170 168 184 177 209 246 266 275 255 233 223 221 214 206 213 207 204 206 208 209 209 212 214 214 217 220 222 225 229
198 203 192 188 188 196 202 198 194 203 195 193 198 201 194 196 181 173 177 212 245 281 285 256 234 223 217 204 220 214 212 211 212 212 214 216 218 219 221 222 225 226 228
196 188 186 189 196 199 205 199 206 216 205 206 213 202 197 207 190 180 175 172 205 293 292 265 261 230 226 208 222 213 220 219 216 215 216 218 218 218 220 219 222 223 225
188 181 183 187 197 203 203 200 214 221 212 212 214 204 204 215 205 200 190 177 171 212 260 264 259 251 234 212 218 211 216 223 219 217 218 220 220 219 220 220 220 221 224
181 175 182 192 200 203 200 195 212 221 211 222 212 201 215 222 218 205 201 197 184 185 226 246 241 253 234 223 217 211 222 223 225 222 223 223 220 217 216 215 216 219 223
178 178 184 186 194 202 199 196 212 211 212 224 219 207 219 217 215 221 204 200 198 180 211 258 253 266 222 224 223 222 227 225 229 224 220 219 217 216 214 215 218 219 221
186 183 178 180 194 197 200 203 215 213 209 221 229 220 227 217 217 219 200 204 204 194 189 234 266 263 244 231 220 225 236 232 229 225 218 217 217 217 218 219 221 222 224
188 186 182 190 202 200 204 214 214 215 218 224 223 219 224 212 224 226 213 213 210 206 183 195 252 261 269 264 240 256 248 250 245 234 220 219 219 220 222 223 224 224 226
186 193 193 195 199 199 203 213 212 217 224 232 229 223 218 210 218 223 220 217 206 199 190 195 236 262 272 278 196 229 267 266 259 258 243 222 221 225 227 229 230 229 229
195 192 191 198 194 192 208 212 217 218 224 245 256 243 227 220 220 215 216 207 193 193 192 196 222 252 267 267 238 224 233 265 270 246 237 239 227 235 238 238 236 233 233
201 181 191 191 199 218 220 219 208 213 229 235 254 265 256 238 233 225 225 214 197 193 198 200 215 219 244 240 238 221 214 226 274 258 193 255 226 240 245 238 238 233 233
192 181 189 180 208 231 221 216 216 198 219 232 238 254 270 259 233 235 245 243 237 223 206 199 205 219 225 226 209 227 225 222 237 238 176 254 245 249 250 248 244 240 239
189 206 220 212 217 249 224 215 219 197 208 236 237 225 220 251 234 183 190 231 266 261 235 211 208 221 223 218 204 209 218 237 271 269 181 230 251 252 262 257 250 242 242
207 215 220 214 223 257 228 205 179 165 189 255 263 244 203 213 248 190 157 184 258 287 277 233 219 225 229 227 201 162 175 163 269 271 209 197 238 263 273 267 260 246 243
203 204 223 234 225 235 226 202 180 156 170 266 310 295 252 239 250 195 181 184 216 249 262 308 290 280 268 265 234 197 190 191 224 260 237 192 222 219 283 271 263 263 253